Regional Weather Roundup
Issued by NWS Upton, NY

Current Version | Previous Version | Text Only | Print | Product List | Glossary On
Versions: 1 2 3 4 5 6 7 8 9 10 11 12 13 14 15 16 17 18 19 20 21 22 23 24 25 26 27 28 29
000 ASUS41 KOKX 221109 RWROKX REGIONAL WEATHER ROUNDUP NATIONAL WEATHER SERVICE NEW YORK NY 600 AM EST WED NOV 22 2017 NOTE: "FAIR" INDICATES FEW OR NO CLOUDS BELOW 12,000 FEET WITH NO SIGNIFICANT WEATHER AND/OR OBSTRUCTIONS TO VISIBILITY. NYZ071-072-176-178-NJZ106-104-221200- NEW YORK CITY METRO AREA CITY SKY/WX TMP DP RH WIND PRES REMARKS Central Park CLOUDY 54 48 80 CALM 29.92F Bronx Bot Gard N/A 48 43 81 CALM 29.91F Bronx Lehman C N/A 52 32 46 E2 N/A LaGuardia APRT LGT RAIN 51 47 86 CALM 29.90F Queens College N/A 54 32 43 S3 N/A Kennedy INTL LGT RAIN 52 50 93 CALM 29.92F Breezy Point N/A 50 N/A N/A N1 N/A Brooklyn Coll N/A 54 32 43 S1 N/A Staten Island N/A 52 32 46 SE1 N/A Newark/Liberty CLOUDY 49 42 77 N5 29.90F Teterboro CLOUDY 46 40 79 CALM 29.89F $$ NYZ177-179-078>081-221200- LONG ISLAND NEW YORK CITY SKY/WX TMP DP RH WIND PRES REMARKS Jones Beach N/A 54 N/A N/A W1 N/A Wantagh N/A 54 32 43 W2 N/A Matinecock PT N/A 50 N/A N/A NE5 N/A Farmingdale LGT RAIN 53 52 96 CALM 29.91F MacArthur/ISP LGT RAIN 54 54 100 W3 29.91F FOG Shirley RAIN 54 54 100 S6 29.94F FOG Mt Sinai Harb N/A N/A N/A N/A S2 N/A Westhampton RAIN 54 52 93 SW8 29.95F FOG East Hampton RAIN 53 51 94 SW5 29.93F Southold N/A 52 32 46 CALM N/A Montauk N/A 56 53 90 W6 29.96 $$ NYZ052-065-067-221200- HUDSON VALLEY CITY SKY/WX TMP DP RH WIND PRES REMARKS White Plains DRIZZLE 47 43 86 CALM 29.89F Larchmont Harb N/A 48 N/A N/A N3 N/A Croton On Huds N/A 45 N/A N/A E1 N/A Somers N/A 45 32 61 N2 N/A Brewster N/A 39 32 75 NW2 N/A Newburgh MOCLDY 37 36 93 CALM 29.90F Montgomery CLOUDY 33 30 88 W3 29.89F Suffern N/A 45 32 61 CALM N/A Poughkeepsie CLOUDY 34 30 85 CALM 29.90F Albany CLOUDY 40 32 73 S5 29.89F $$ NJZ001-105-106-008-010-013-015-019>022-104-221200- NEW JERSEY CITY SKY/WX TMP DP RH WIND PRES REMARKS Newark/Liberty CLOUDY 49 42 77 N5 29.90F Teterboro CLOUDY 46 40 79 CALM 29.89F Caldwell MOCLDY 40 38 93 CALM 29.91F Somerville CLOUDY 40 37 89 CALM 29.89F Linden CLOUDY 47 40 76 CALM 29.91S Perth Amboy N/A 48 N/A N/A S3 N/A Sussex PTCLDY 35 33 92 CALM 29.89F Andover N/A 36 35 96 CALM 29.89F Trenton CLOUDY 48 44 86 CALM 29.90F Millville CLOUDY 54 54 100 CALM 29.90S Atlantic City CLOUDY 55 54 96 S3 29.91F Wrightstown MOCLDY 52 50 93 E3 29.88S FOG Toms River LGT RAIN 52 51 97 S3 29.92R Belmar LGT RAIN 54 53 97 SE6 29.93R $$ PAZ047>061-062-071-221200- EASTERN PENNSYLVANIA CITY SKY/WX TMP DP RH WIND PRES REMARKS Philadelphia LGT RAIN 52 48 86 S7 29.91S Allentown CLOUDY 38 33 82 W3 29.90F Scranton CLOUDY 39 36 89 SW3 29.90R $$ CTZ002-004>006-009-010-012-RIZ004-006-007-MAZ004-011-015-221200- SOUTHERN NEW ENGLAND IN CT CITY SKY/WX TMP DP RH WIND PRES REMARKS Bradley INTL CLOUDY 41 39 93 CALM 29.92F Hartford CLOUDY 45 42 89 CALM 29.92F Danbury CLOUDY 43 39 86 CALM 29.92F Wtrbury/Oxford CLOUDY 45 42 89 CALM 29.92F Norwalk Harbor N/A 46 N/A N/A N3 N/A Bridgeport CLOUDY 50 45 83 CALM 29.92F Meriden CLOUDY 41 40 96 CALM 29.92F New Haven CLOUDY 51 49 92 CALM 29.92F Chester DRIZZLE 50 48 93 CALM 29.93F Groton LGT RAIN 54 52 93 S3 29.93F FOG Wilimantic CLOUDY 44 41 89 NE3 29.94F IN RI CITY SKY/WX TMP DP RH WIND PRES REMARKS Providence RAIN 53 53 100 S8 29.96F FOG Block Island CLOUDY 58 56 93 S16 29.93F Westerly HVY RAIN 55 54 96 SW8 29.95F FOG IN MA CITY SKY/WX TMP DP RH WIND PRES REMARKS Boston CLOUDY 49 47 93 S9 29.96F Worcester CLOUDY 44 39 82 S5 29.94F Westfield CLOUDY 38 37 97 NW3 29.93F Provincetown CLOUDY 54 52 93 S5 30.00F Nantucket MOCLDY 54 53 97 S16 30.00F $$ ANZ330-335-338-340-345-350-353-355-221200- COASTAL MARINE OBSERVATIONS STATION/POSITION TIME SKY/WX TEMP WIND PRES VSBY WAVE AIR SEA DIR/SP/G HT/PER (UTC) (F) (DEG/KT/KT) (MB) (MI) (FT/S) NY HARB ENTRANCE 0950 58 57 210/ 14/ 17 1012.8 4/ 7 20 S FIRE ISLAND 0950 60 57 180/ 17/ 21 1012.8 5/ 7 GREAT SOUTH BAY 0930 52 46 230/ 14/ 16 N/A HUDSON CANYON 0950 62 59 150/ 16/ 19 1013.5 5/ 7 KINGS POINT 1048 53 51 160/ 1/ 2 1013.3 EXECUTION ROCKS 1030 50 40/ 6/ 8 N/A WESTERN LI SOUND 0949 53 110/ 2/ 4 N/A 0 CENTRAL LI SOUND 1015 55 210/ 4/ 8 N/A 1 ROBBINS REEF 1048 53 CALM 1013.1 $$ >>>>>>>>>>>>>>>>>>>>>>>>>>>> KEY <<<<<<<<<<<<<<<<<<<<<<<<<<< > < > SKY/WX - Sky Condition/Present Weather < > TMP - Temperature in Fahrenheit < > DP - Dew Point in Fahrenheit < > RH - Relative Humidity in Percent < > WIND - Direction (from) and Speed in MPH < > PRES - Mean Sea Level Pressure (inches of Hg) < > WCI - Wind Chill Index < > VSB - VISIBILITY IN MILES < > HX - HEAT INDEX < > TC - TEMPERATURE IN CELSIUS < > VRB - VARIABLE WIND DIRECTION < > < >>>>>>>>>>>>>>>>>>>>>>>>>>>> KEY <<<<<<<<<<<<<<<<<<<<<<<<<<<

USA.gov is the U.S. government's official web portal to all federal, state and local government web resources and services.